Location: Passo di Treia
(43.2833°N, 13.3333°E)
Time: 01:27:11
(UTC+00:00)

Cosmos 1536 - Pass Details

Date: 09 December 2019
Orbit: 540 x 559 km, 82.5° (Epoch: 18 January)

Event Time Altitude Azimuth Distance (km) Brightness Sun altitude
Rises 16:51:40 0° 351° (N) 2,736 6.3 -14.2°
Reaches altitude 10° 16:53:51 10° 351° (N) 1,834 5.4 -14.5°
Maximum altitude 16:57:53 86° 262° (W) 555 2.8 -15.2°
Drops below altitude 10° 17:01:52 10° 175° (S) 1,807 5.6 -15.9°
Sets 17:04:00 0° 175° (S) 2,691 6.5 -16.3°
